| time (UTC) | temp F | wind direction | speed knots | gust knots | rain 1hr in | rain 24hr in | rain mn in | humidity % | barometer mb |
| 20260508010043 | 57 | 265 | 0.9 | 1.7 | 0.00 | 0.00 | 0.00 | 82 | 1015.0 |
| 20260508005542 | 57 | 269 | 1.7 | 1.7 | 0.00 | 0.00 | 0.00 | 82 | 1015.0 |
| 20260508005042 | 57 | 230 | 0.0 | 2.6 | 0.00 | 0.00 | 0.00 | 82 | 1015.0 |
| 20260508004543 | 57 | 257 | 1.7 | 2.6 | 0.00 | 0.00 | 0.00 | 82 | 1014.0 |
| 20260508004042 | 58 | 236 | 0.9 | 1.7 | 0.00 | 0.00 | 0.00 | 82 | 1015.0 |
| 20260508003542 | 58 | 184 | 0.9 | 2.6 | 0.00 | 0.00 | 0.00 | 81 | 1015.0 |
| 20260508003043 | 58 | 269 | 0.0 | 1.7 | 0.00 | 0.00 | 0.00 | 82 | 1015.0 |
| 20260508002543 | 58 | 122 | 0.0 | 0.0 | 0.00 | 0.00 | 0.00 | 82 | 1015.0 |
| 20260508002042 | 58 | 139 | 0.0 | 0.9 | 0.00 | 0.00 | 0.00 | 81 | 1015.0 |
| 20260508001543 | 59 | 9 | 0.9 | 1.7 | 0.00 | 0.00 | 0.00 | 81 | 1015.0 |
| 20260508001042 | 59 | 201 | 0.0 | 1.7 | 0.00 | 0.00 | 0.00 | 81 | 1015.0 |
| 20260508000542 | 59 | 33 | 0.0 | 2.6 | 0.00 | 0.00 | 0.00 | 81 | 1015.0 |
| 20260508000042 | 59 | 41 | 0.9 | 1.7 | 0.00 | 0.00 | 0.00 | 81 | 1015.0 |
| 20260507235542 | 59 | 341 | 1.7 | 2.6 | 0.00 | 0.00 | 0.00 | 81 | 1015.0 |
| 20260507235043 | 59 | 339 | 2.6 | 2.6 | 0.00 | 0.00 | 0.00 | 81 | 1015.0 |
| 20260507234542 | 59 | 338 | 1.7 | 1.7 | 0.00 | 0.00 | 0.00 | 81 | 1015.0 |
| 20260507234043 | 59 | 348 | 2.6 | 3.5 | 0.00 | 0.00 | 0.00 | 81 | 1015.0 |
| 20260507233542 | 59 | 357 | 1.7 | 4.3 | 0.00 | 0.00 | 0.00 | 81 | 1015.0 |
| 20260507233043 | 59 | 308 | 2.6 | 2.6 | 0.00 | 0.00 | 0.00 | 80 | 1015.0 |
| 20260507232542 | 59 | 327 | 2.6 | 3.5 | 0.00 | 0.00 | 0.00 | 80 | 1015.0 |
| 20260507232042 | 59 | 305 | 0.9 | 3.5 | 0.00 | 0.00 | 0.00 | 80 | 1015.0 |
| 20260507231543 | 59 | 329 | 1.7 | 3.5 | 0.00 | 0.00 | 0.00 | 81 | 1015.0 |
| 20260507231042 | 59 | 331 | 2.6 | 3.5 | 0.00 | 0.00 | 0.00 | 81 | 1015.0 |
| 20260507230543 | 59 | 343 | 2.6 | 3.5 | 0.00 | 0.00 | 0.00 | 80 | 1015.0 |
| 20260507230042 | 59 | 353 | 1.7 | 3.5 | 0.00 | 0.00 | 0.00 | 80 | 1015.0 |
| 20260507225542 | 60 | 14 | 0.9 | 4.3 | 0.00 | 0.00 | 0.00 | 80 | 1015.0 |
| 20260507225043 | 60 | 320 | 1.7 | 3.5 | 0.00 | 0.00 | 0.00 | 80 | 1015.0 |
| 20260507224542 | 60 | 339 | 2.6 | 2.6 | 0.00 | 0.00 | 0.00 | 80 | 1015.0 |
| 20260507224042 | 60 | 269 | 0.9 | 3.5 | 0.00 | 0.00 | 0.00 | 80 | 1015.0 |
| 20260507223543 | 60 | 340 | 2.6 | 3.5 | 0.00 | 0.00 | 0.00 | 80 | 1015.0 |
| 20260507223042 | 60 | 346 | 2.6 | 4.3 | 0.00 | 0.00 | 0.00 | 80 | 1015.0 |
| 20260507222542 | 60 | 315 | 3.5 | 4.3 | 0.00 | 0.00 | 0.00 | 80 | 1015.0 |
| 20260507222042 | 60 | 353 | 2.6 | 2.6 | 0.00 | 0.00 | 0.00 | 80 | 1015.0 |
| 20260507221542 | 60 | 328 | 2.6 | 4.3 | 0.00 | 0.00 | 0.00 | 80 | 1015.0 |
| 20260507221043 | 60 | 345 | 2.6 | 3.5 | 0.00 | 0.00 | 0.00 | 80 | 1015.0 |
| 20260507220542 | 60 | 330 | 2.6 | 3.5 | 0.00 | 0.00 | 0.00 | 80 | 1015.0 |
| 20260507220043 | 60 | 276 | 1.7 | 2.6 | 0.00 | 0.00 | 0.00 | 80 | 1015.0 |
| 20260507215543 | 60 | 353 | 1.7 | 4.3 | 0.00 | 0.00 | 0.00 | 79 | 1015.0 |
| 20260507215042 | 60 | 306 | 3.5 | 4.3 | 0.00 | 0.00 | 0.00 | 79 | 1015.0 |
| 20260507214543 | 60 | 358 | 0.9 | 3.5 | 0.00 | 0.00 | 0.00 | 79 | 1015.0 |
| 20260507214043 | 60 | 3 | 3.5 | 4.3 | 0.00 | 0.00 | 0.00 | 79 | 1015.0 |
| 20260507213542 | 60 | 327 | 2.6 | 4.3 | 0.00 | 0.00 | 0.00 | 79 | 1015.0 |
| 20260507213042 | 60 | 338 | 1.7 | 5.2 | 0.00 | 0.00 | 0.00 | 79 | 1015.0 |
| 20260507212543 | 60 | 329 | 3.5 | 4.3 | 0.00 | 0.00 | 0.00 | 79 | 1015.0 |
| 20260507212043 | 60 | 26 | 4.3 | 4.3 | 0.00 | 0.00 | 0.00 | 79 | 1015.0 |
| 20260507211542 | 60 | 278 | 0.9 | 2.6 | 0.00 | 0.00 | 0.00 | 79 | 1015.0 |
| 20260507211043 | 60 | 323 | 1.7 | 5.2 | 0.00 | 0.00 | 0.00 | 79 | 1015.0 |
| 20260507210543 | 60 | 344 | 1.7 | 2.6 | 0.00 | 0.00 | 0.00 | 79 | 1016.0 |
| 20260507210043 | 60 | 331 | 2.6 | 3.5 | 0.00 | 0.00 | 0.00 | 78 | 1015.0 |
| 20260507205543 | 60 | 344 | 2.6 | 2.6 | 0.00 | 0.00 | 0.00 | 78 | 1015.0 |
| 20260507205043 | 60 | 3 | 1.7 | 2.6 | 0.00 | 0.00 | 0.00 | 78 | 1015.0 |
| 20260507204543 | 60 | 342 | 2.6 | 5.2 | 0.00 | 0.00 | 0.00 | 78 | 1015.0 |
| 20260507204042 | 61 | 321 | 5.2 | 5.2 | 0.00 | 0.00 | 0.00 | 78 | 1015.0 |
| 20260507203542 | 61 | 352 | 2.6 | 2.6 | 0.00 | 0.00 | 0.00 | 78 | 1015.0 |
| 20260507203045 | 61 | 321 | 2.6 | 4.3 | 0.00 | 0.00 | 0.00 | 78 | 1015.0 |
| 20260507202543 | 60 | 300 | 1.7 | 3.5 | 0.00 | 0.00 | 0.00 | 78 | 1015.0 |
| 20260507202043 | 61 | 11 | 3.5 | 4.3 | 0.00 | 0.00 | 0.00 | 78 | 1015.0 |
| 20260507201542 | 61 | 333 | 2.6 | 3.5 | 0.00 | 0.00 | 0.00 | 78 | 1015.0 |
| 20260507201042 | 61 | 355 | 1.7 | 3.5 | 0.00 | 0.00 | 0.00 | 78 | 1015.0 |
| 20260507200543 | 61 | 92 | 2.6 | 3.5 | 0.00 | 0.00 | 0.00 | 78 | 1015.0 |
| 20260507200042 | 61 | 8 | 2.6 | 3.5 | 0.00 | 0.00 | 0.00 | 77 | 1015.0 |
| 20260507195542 | 61 | 349 | 3.5 | 3.5 | 0.00 | 0.00 | 0.00 | 77 | 1015.0 |
| 20260507195042 | 61 | 52 | 4.3 | 7.8 | 0.00 | 0.00 | 0.00 | 77 | 1015.0 |
| 20260507194543 | 61 | 15 | 2.6 | 5.2 | 0.00 | 0.00 | 0.00 | 77 | 1015.0 |
| 20260507194042 | 61 | 46 | 1.7 | 4.3 | 0.00 | 0.00 | 0.00 | 77 | 1014.0 |
| 20260507193543 | 61 | 17 | 1.7 | 7.0 | 0.00 | 0.00 | 0.00 | 77 | 1014.0 |
| 20260507193045 | 61 | 55 | 4.3 | 6.1 | 0.00 | 0.00 | 0.00 | 76 | 1014.0 |
| 20260507192543 | 61 | 58 | 6.1 | 6.1 | 0.00 | 0.00 | 0.00 | 76 | 1014.0 |
| 20260507192043 | 61 | 15 | 4.3 | 5.2 | 0.00 | 0.00 | 0.00 | 76 | 1014.0 |
| 20260507191543 | 61 | 26 | 4.3 | 4.3 | 0.00 | 0.00 | 0.00 | 75 | 1014.0 |
| 20260507191043 | 61 | 50 | 5.2 | 5.2 | 0.00 | 0.00 | 0.00 | 75 | 1014.0 |
| 20260507190543 | 62 | 4 | 1.7 | 3.5 | 0.00 | 0.00 | 0.00 | 75 | 1014.0 |
| 20260507190043 | 62 | 345 | 4.3 | 4.3 | 0.00 | 0.00 | 0.00 | 75 | 1014.0 |
| 20260507185543 | 62 | 1 | 2.6 | 2.6 | 0.00 | 0.00 | 0.00 | 74 | 1014.0 |
| 20260507185043 | 62 | 51 | 5.2 | 6.1 | 0.00 | 0.00 | 0.00 | 74 | 1014.0 |
| 20260507184542 | 62 | 85 | 3.5 | 5.2 | 0.00 | 0.00 | 0.00 | 74 | 1014.0 |
| 20260507184043 | 62 | 65 | 3.5 | 4.3 | 0.00 | 0.00 | 0.00 | 74 | 1014.0 |
| 20260507183542 | 62 | 122 | 2.6 | 3.5 | 0.00 | 0.00 | 0.00 | 74 | 1014.0 |
| 20260507183042 | 62 | 62 | 4.3 | 6.1 | 0.00 | 0.00 | 0.00 | 74 | 1014.0 |
| 20260507182542 | 62 | 56 | 4.3 | 6.1 | 0.00 | 0.00 | 0.00 | 74 | 1014.0 |
| 20260507182043 | 62 | 103 | 4.3 | 6.1 | 0.00 | 0.00 | 0.00 | 74 | 1014.0 |
| 20260507181543 | 62 | 90 | 3.5 | 5.2 | 0.00 | 0.00 | 0.00 | 73 | 1014.0 |
| 20260507181043 | 63 | 59 | 4.3 | 4.3 | 0.00 | 0.00 | 0.00 | 73 | 1014.0 |
| 20260507180543 | 63 | 30 | 1.7 | 5.2 | 0.00 | 0.00 | 0.00 | 72 | 1014.0 |
| 20260507180044 | 63 | 54 | 4.3 | 7.0 | 0.00 | 0.00 | 0.00 | 71 | 1014.0 |
| 20260507175542 | 63 | 65 | 2.6 | 7.0 | 0.00 | 0.00 | 0.00 | 72 | 1014.0 |
| 20260507175042 | 63 | 30 | 3.5 | 7.0 | 0.00 | 0.00 | 0.00 | 70 | 1014.0 |
| 20260507174542 | 64 | 58 | 7.8 | 10.4 | 0.00 | 0.00 | 0.00 | 70 | 1014.0 |
| 20260507174042 | 63 | 42 | 3.5 | 7.8 | 0.00 | 0.00 | 0.00 | 71 | 1013.0 |
| 20260507173543 | 63 | 100 | 5.2 | 7.0 | 0.00 | 0.00 | 0.00 | 72 | 1014.0 |
| 20260507173043 | 63 | 88 | 3.5 | 8.7 | 0.00 | 0.00 | 0.00 | 72 | 1014.0 |
| 20260507172543 | 64 | 102 | 5.2 | 9.6 | 0.00 | 0.00 | 0.00 | 71 | 1014.0 |
| 20260507172043 | 64 | 36 | 7.0 | 9.6 | 0.00 | 0.00 | 0.00 | 71 | 1013.0 |
| 20260507171543 | 63 | 67 | 5.2 | 9.6 | 0.00 | 0.00 | 0.00 | 71 | 1013.0 |
| 20260507171043 | 63 | 55 | 5.2 | 7.0 | 0.00 | 0.00 | 0.00 | 72 | 1014.0 |
| 20260507170542 | 63 | 104 | 8.7 | 11.3 | 0.00 | 0.00 | 0.00 | 71 | 1013.0 |
| 20260507170042 | 64 | 58 | 3.5 | 7.8 | 0.00 | 0.00 | 0.00 | 69 | 1013.0 |
| 20260507165542 | 65 | 109 | 4.3 | 9.6 | 0.00 | 0.00 | 0.00 | 69 | 1013.0 |
| 20260507165042 | 64 | 58 | 3.5 | 9.6 | 0.00 | 0.00 | 0.00 | 70 | 1013.0 |
| 20260507164543 | 65 | 295 | 1.7 | 4.3 | 0.00 | 0.00 | 0.00 | 68 | 1013.0 |
| 20260507164043 | 65 | 73 | 3.5 | 7.8 | 0.00 | 0.00 | 0.00 | 69 | 1013.0 |
| 20260507163543 | 65 | 46 | 7.8 | 10.4 | 0.00 | 0.00 | 0.00 | 69 | 1013.0 |
| 20260507163043 | 65 | 51 | 4.3 | 6.1 | 0.00 | 0.00 | 0.00 | 69 | 1013.0 |
| 20260507162542 | 65 | 290 | 3.5 | 9.6 | 0.00 | 0.00 | 0.00 | 68 | 1013.0 |
| 20260507162043 | 65 | 61 | 5.2 | 6.1 | 0.00 | 0.00 | 0.00 | 68 | 1013.0 |
| 20260507161542 | 66 | 109 | 6.1 | 10.4 | 0.00 | 0.00 | 0.00 | 67 | 1013.0 |
| 20260507161043 | 65 | 60 | 6.1 | 9.6 | 0.00 | 0.00 | 0.00 | 67 | 1013.0 |
| 20260507160543 | 64 | 323 | 1.7 | 7.8 | 0.00 | 0.00 | 0.00 | 69 | 1013.0 |
| 20260507160043 | 64 | 126 | 7.0 | 7.8 | 0.00 | 0.00 | 0.00 | 69 | 1013.0 |
| 20260507155543 | 64 | 65 | 7.8 | 10.4 | 0.00 | 0.00 | 0.00 | 69 | 1013.0 |
| 20260507155043 | 65 | 359 | 4.3 | 8.7 | 0.00 | 0.00 | 0.00 | 68 | 1013.0 |
| 20260507154542 | 66 | 32 | 2.6 | 7.8 | 0.00 | 0.00 | 0.00 | 67 | 1013.0 |
| 20260507154043 | 66 | 83 | 7.0 | 7.8 | 0.00 | 0.00 | 0.00 | 68 | 1013.0 |
| 20260507153542 | 64 | 57 | 5.2 | 8.7 | 0.00 | 0.00 | 0.00 | 68 | 1013.0 |
| 20260507153043 | 64 | 62 | 6.1 | 10.4 | 0.00 | 0.00 | 0.00 | 68 | 1013.0 |
| 20260507152542 | 65 | 59 | 12.2 | 13.0 | 0.00 | 0.00 | 0.00 | 67 | 1013.0 |
| 20260507152044 | 65 | 92 | 2.6 | 5.2 | 0.00 | 0.00 | 0.00 | 67 | 1013.0 |
| 20260507151542 | 65 | 58 | 7.8 | 10.4 | 0.00 | 0.00 | 0.00 | 66 | 1013.0 |
| 20260507151042 | 65 | 65 | 10.4 | 13.0 | 0.00 | 0.00 | 0.00 | 67 | 1013.0 |
| 20260507150542 | 66 | 80 | 6.1 | 10.4 | 0.00 | 0.00 | 0.00 | 65 | 1013.0 |
| 20260507150045 | 65 | 53 | 9.6 | 12.2 | 0.00 | 0.00 | 0.00 | 66 | 1013.0 |
| 20260507145543 | 65 | 2 | 6.1 | 7.0 | 0.00 | 0.00 | 0.00 | 66 | 1013.0 |
| 20260507145042 | 66 | 316 | 7.8 | 8.7 | 0.00 | 0.00 | 0.00 | 64 | 1013.0 |
| 20260507144543 | 66 | 82 | 9.6 | 9.6 | 0.00 | 0.00 | 0.00 | 65 | 1013.0 |
| 20260507144042 | 66 | 59 | 2.6 | 12.2 | 0.00 | 0.00 | 0.00 | 66 | 1014.0 |
| 20260507143543 | 66 | 62 | 7.0 | 14.8 | 0.00 | 0.00 | 0.00 | 66 | 1013.0 |
| 20260507143043 | 66 | 66 | 7.8 | 11.3 | 0.00 | 0.00 | 0.00 | 65 | 1014.0 |
| 20260507142543 | 66 | 62 | 4.3 | 7.8 | 0.00 | 0.00 | 0.00 | 64 | 1014.0 |
| 20260507142043 | 66 | 290 | 4.3 | 7.8 | 0.00 | 0.00 | 0.00 | 66 | 1014.0 |
| 20260507141542 | 65 | 56 | 8.7 | 10.4 | 0.00 | 0.00 | 0.00 | 66 | 1014.0 |
| 20260507141043 | 67 | 296 | 2.6 | 5.2 | 0.00 | 0.00 | 0.00 | 64 | 1014.0 |
| 20260507140543 | 66 | 59 | 3.5 | 8.7 | 0.00 | 0.00 | 0.00 | 64 | 1014.0 |
| 20260507140043 | 66 | 300 | 1.7 | 9.6 | 0.00 | 0.00 | 0.00 | 64 | 1014.0 |
| 20260507135548 | 65 | 63 | 12.2 | 15.6 | 0.00 | 0.00 | 0.00 | 67 | 1014.0 |
| 20260507135043 | 66 | 42 | 11.3 | 12.2 | 0.00 | 0.00 | 0.00 | 63 | 1014.0 |
| 20260507134543 | 66 | 54 | 7.0 | 11.3 | 0.00 | 0.00 | 0.00 | 64 | 1014.0 |
| 20260507134043 | 66 | 96 | 2.6 | 11.3 | 0.00 | 0.00 | 0.00 | 66 | 1014.0 |
| 20260507133542 | 66 | 82 | 5.2 | 13.0 | 0.00 | 0.00 | 0.00 | 64 | 1014.0 |
| 20260507133043 | 65 | 56 | 11.3 | 16.5 | 0.00 | 0.00 | 0.00 | 65 | 1014.0 |
| 20260507132542 | 66 | 134 | 2.6 | 11.3 | 0.00 | 0.00 | 0.00 | 64 | 1014.0 |
| 20260507132043 | 65 | 72 | 4.3 | 11.3 | 0.00 | 0.00 | 0.00 | 66 | 1014.0 |
| 20260507131543 | 65 | 36 | 5.2 | 10.4 | 0.00 | 0.00 | 0.00 | 66 | 1014.0 |
| 20260507131042 | 65 | 83 | 4.3 | 11.3 | 0.00 | 0.00 | 0.00 | 66 | 1014.0 |
| 20260507130545 | 66 | 55 | 8.7 | 13.0 | 0.00 | 0.00 | 0.00 | 64 | 1014.0 |
| 20260507130043 | 65 | 358 | 4.3 | 7.8 | 0.00 | 0.00 | 0.00 | 65 | 1014.0 |
| 20260507125548 | 66 | 353 | 4.3 | 7.0 | 0.00 | 0.00 | 0.00 | 64 | 1014.0 |
| 20260507125042 | 66 | 334 | 2.6 | 7.8 | 0.00 | 0.00 | 0.00 | 65 | 1015.0 |
| 20260507124543 | 64 | 93 | 5.2 | 5.2 | 0.00 | 0.00 | 0.00 | 67 | 1014.0 |
| 20260507124043 | 65 | 59 | 6.1 | 13.0 | 0.00 | 0.00 | 0.00 | 67 | 1015.0 |
| 20260507123543 | 66 | 74 | 8.7 | 13.0 | 0.00 | 0.00 | 0.00 | 63 | 1015.0 |
| 20260507123043 | 65 | 85 | 7.0 | 9.6 | 0.00 | 0.00 | 0.00 | 66 | 1014.0 |
| 20260507122543 | 65 | 62 | 2.6 | 14.8 | 0.00 | 0.00 | 0.00 | 66 | 1015.0 |
| 20260507122043 | 66 | 55 | 11.3 | 13.0 | 0.00 | 0.00 | 0.00 | 65 | 1015.0 |
| 20260507121543 | 64 | 101 | 3.5 | 13.9 | 0.00 | 0.00 | 0.00 | 67 | 1015.0 |
| 20260507121043 | 65 | 66 | 7.8 | 14.8 | 0.00 | 0.00 | 0.00 | 66 | 1015.0 |
| 20260507120543 | 64 | 83 | 4.3 | 12.2 | 0.00 | 0.00 | 0.00 | 67 | 1015.0 |
| 20260507120042 | 65 | 67 | 9.6 | 13.9 | 0.00 | 0.00 | 0.00 | 64 | 1015.0 |
| 20260507115543 | 66 | 90 | 7.8 | 8.7 | 0.00 | 0.00 | 0.00 | 65 | 1015.0 |
| 20260507115042 | 65 | 98 | 4.3 | 7.8 | 0.00 | 0.00 | 0.00 | 65 | 1015.0 |
| 20260507114543 | 65 | 104 | 4.3 | 9.6 | 0.00 | 0.00 | 0.00 | 66 | 1015.0 |
| 20260507114042 | 66 | 55 | 11.3 | 16.5 | 0.00 | 0.00 | 0.00 | 64 | 1015.0 |
| 20260507113542 | 66 | 76 | 8.7 | 13.0 | 0.00 | 0.00 | 0.00 | 64 | 1015.0 |
| 20260507113042 | 67 | 59 | 2.6 | 7.8 | 0.00 | 0.00 | 0.00 | 63 | 1015.0 |
| 20260507112542 | 65 | 20 | 2.6 | 9.6 | 0.00 | 0.00 | 0.00 | 66 | 1015.0 |
| 20260507112045 | 65 | 176 | 2.6 | 7.8 | 0.00 | 0.00 | 0.00 | 65 | 1015.0 |
| 20260507111542 | 66 | 133 | 10.4 | 13.0 | 0.00 | 0.00 | 0.00 | 64 | 1015.0 |
| 20260507111043 | 66 | 12 | 7.8 | 8.7 | 0.00 | 0.00 | 0.00 | 64 | 1015.0 |
| 20260507110543 | 64 | 21 | 6.1 | 9.6 | 0.00 | 0.00 | 0.00 | 67 | 1015.0 |
| 20260507110044 | 64 | 59 | 11.3 | 13.0 | 0.00 | 0.00 | 0.00 | 67 | 1015.0 |
| 20260507105542 | 64 | 65 | 9.6 | 9.6 | 0.00 | 0.00 | 0.00 | 67 | 1015.0 |
| 20260507105042 | 65 | 77 | 4.3 | 11.3 | 0.00 | 0.00 | 0.00 | 67 | 1015.0 |
| 20260507104543 | 65 | 352 | 4.3 | 7.8 | 0.00 | 0.00 | 0.00 | 67 | 1015.0 |
| 20260507104043 | 64 | 67 | 8.7 | 11.3 | 0.00 | 0.00 | 0.00 | 68 | 1015.0 |
| 20260507103543 | 65 | 71 | 10.4 | 13.0 | 0.00 | 0.00 | 0.00 | 66 | 1015.0 |
| 20260507103042 | 65 | 340 | 2.6 | 8.7 | 0.00 | 0.00 | 0.00 | 67 | 1015.0 |
| 20260507102542 | 65 | 54 | 11.3 | 13.9 | 0.00 | 0.00 | 0.00 | 67 | 1015.0 |
| 20260507102043 | 65 | 62 | 1.7 | 8.7 | 0.00 | 0.00 | 0.00 | 67 | 1015.0 |
| 20260507101055 | 65 | 56 | 4.3 | 9.6 | 0.00 | 0.00 | 0.00 | 66 | 1015.0 |
| 20260507100542 | 65 | 64 | 10.4 | 11.3 | 0.00 | 0.00 | 0.00 | 64 | 1015.0 |
| 20260507100042 | 65 | 1 | 4.3 | 9.6 | 0.00 | 0.00 | 0.00 | 67 | 1015.0 |
| 20260507095542 | 66 | 78 | 1.7 | 5.2 | 0.00 | 0.00 | 0.00 | 65 | 1015.0 |
| 20260507095044 | 65 | 135 | 2.6 | 9.6 | 0.00 | 0.00 | 0.00 | 67 | 1015.0 |
| 20260507094542 | 64 | 54 | 12.2 | 13.0 | 0.00 | 0.00 | 0.00 | 68 | 1015.0 |
| 20260507094042 | 64 | 52 | 9.6 | 12.2 | 0.00 | 0.00 | 0.00 | 68 | 1015.0 |
| 20260507093542 | 65 | 11 | 1.7 | 6.1 | 0.00 | 0.00 | 0.00 | 67 | 1015.0 |
| 20260507092542 | 65 | 49 | 9.6 | 10.4 | 0.00 | 0.00 | 0.00 | 65 | 1015.0 |
| 20260507092042 | 64 | 47 | 2.6 | 6.1 | 0.00 | 0.00 | 0.00 | 68 | 1015.0 |
| 20260507091542 | 63 | 62 | 8.7 | 9.6 | 0.00 | 0.00 | 0.00 | 69 | 1015.0 |
| 20260507091042 | 63 | 17 | 4.3 | 9.6 | 0.00 | 0.00 | 0.00 | 70 | 1015.0 |
| 20260507090542 | 63 | 25 | 4.3 | 7.8 | 0.00 | 0.00 | 0.00 | 70 | 1015.0 |
| 20260507090043 | 64 | 77 | 7.0 | 9.6 | 0.00 | 0.00 | 0.00 | 68 | 1015.0 |
| 20260507085544 | 64 | 58 | 2.6 | 5.2 | 0.00 | 0.00 | 0.00 | 68 | 1015.0 |
| 20260507085043 | 64 | 330 | 3.5 | 8.7 | 0.00 | 0.00 | 0.00 | 68 | 1015.0 |
| 20260507084542 | 64 | 353 | 0.9 | 6.1 | 0.00 | 0.00 | 0.00 | 69 | 1015.0 |
| 20260507084043 | 63 | 31 | 2.6 | 4.3 | 0.00 | 0.00 | 0.00 | 71 | 1015.0 |
| 20260507083542 | 63 | 19 | 1.7 | 6.1 | 0.00 | 0.00 | 0.00 | 71 | 1015.0 |
| 20260507083043 | 63 | 239 | 1.7 | 7.0 | 0.00 | 0.00 | 0.00 | 70 | 1015.0 |
| 20260507082543 | 64 | 283 | 5.2 | 6.1 | 0.00 | 0.00 | 0.00 | 70 | 1015.0 |
| 20260507082042 | 64 | 313 | 1.7 | 4.3 | 0.00 | 0.00 | 0.00 | 69 | 1015.0 |
| 20260507081543 | 63 | 26 | 1.7 | 7.0 | 0.00 | 0.00 | 0.00 | 72 | 1015.0 |
| 20260507081045 | 63 | 21 | 5.2 | 7.0 | 0.00 | 0.00 | 0.00 | 71 | 1015.0 |
| 20260507080542 | 62 | 3 | 3.5 | 5.2 | 0.00 | 0.00 | 0.00 | 73 | 1015.0 |
| 20260507080042 | 62 | 40 | 3.5 | 7.0 | 0.00 | 0.00 | 0.00 | 73 | 1015.0 |
| 20260507075542 | 62 | 18 | 5.2 | 8.7 | 0.00 | 0.00 | 0.00 | 74 | 1015.0 |
| 20260507075042 | 62 | 6 | 3.5 | 7.0 | 0.00 | 0.00 | 0.00 | 74 | 1015.0 |
| 20260507074542 | 62 | 359 | 7.0 | 9.6 | 0.00 | 0.00 | 0.00 | 74 | 1015.0 |
| 20260507074042 | 62 | 294 | 3.5 | 7.0 | 0.00 | 0.00 | 0.00 | 74 | 1016.0 |
| 20260507073542 | 62 | 273 | 2.6 | 7.0 | 0.00 | 0.00 | 0.00 | 74 | 1015.0 |
| 20260507073043 | 61 | 307 | 4.3 | 9.6 | 0.00 | 0.00 | 0.00 | 75 | 1015.0 |
| 20260507072542 | 60 | 288 | 1.7 | 4.3 | 0.00 | 0.00 | 0.00 | 76 | 1016.0 |
| 20260507072043 | 60 | 293 | 4.3 | 5.2 | 0.00 | 0.00 | 0.00 | 75 | 1015.0 |
| 20260507071543 | 60 | 352 | 6.1 | 6.1 | 0.00 | 0.00 | 0.00 | 75 | 1015.0 |
| 20260507071042 | 60 | 339 | 4.3 | 5.2 | 0.00 | 0.00 | 0.00 | 73 | 1015.0 |
| 20260507070544 | 61 | 41 | 3.5 | 6.1 | 0.00 | 0.00 | 0.00 | 71 | 1015.0 |
| 20260507070042 | 61 | 32 | 3.5 | 5.2 | 0.00 | 0.00 | 0.00 | 70 | 1015.0 |
| 20260507065543 | 61 | 301 | 0.9 | 4.3 | 0.00 | 0.00 | 0.00 | 70 | 1015.0 |
| 20260507065043 | 61 | 293 | 1.7 | 4.3 | 0.00 | 0.00 | 0.00 | 70 | 1015.0 |
| 20260507064543 | 60 | 352 | 1.7 | 3.5 | 0.00 | 0.00 | 0.00 | 70 | 1015.0 |
| 20260507064042 | 60 | 350 | 3.5 | 5.2 | 0.00 | 0.00 | 0.00 | 69 | 1015.0 |
| 20260507063543 | 60 | 21 | 1.7 | 4.3 | 0.00 | 0.00 | 0.00 | 69 | 1015.0 |
| 20260507063042 | 60 | 13 | 0.9 | 2.6 | 0.00 | 0.00 | 0.00 | 67 | 1015.0 |
| 20260507062542 | 61 | 23 | 2.6 | 4.3 | 0.00 | 0.00 | 0.00 | 66 | 1015.0 |
| 20260507062043 | 62 | 2 | 2.6 | 4.3 | 0.00 | 0.00 | 0.00 | 64 | 1015.0 |
| 20260507061542 | 62 | 344 | 1.7 | 3.5 | 0.00 | 0.00 | 0.00 | 65 | 1015.0 |
| 20260507061043 | 63 | 92 | 0.9 | 1.7 | 0.00 | 0.00 | 0.00 | 64 | 1015.0 |
| 20260507060042 | 61 | 356 | 1.7 | 2.6 | 0.00 | 0.00 | 0.00 | 69 | 1015.0 |
| 20260507055543 | 61 | 28 | 0.0 | 1.7 | 0.00 | 0.00 | 0.00 | 68 | 1014.0 |
| 20260507055042 | 60 | 33 | 0.0 | 1.7 | 0.00 | 0.00 | 0.00 | 70 | 1014.0 |
| 20260507054542 | 59 | 308 | 1.7 | 2.6 | 0.00 | 0.00 | 0.00 | 71 | 1014.0 |
| 20260507054043 | 59 | 33 | 0.0 | 1.7 | 0.00 | 0.00 | 0.00 | 73 | 1014.0 |
| 20260507053543 | 58 | 46 | 0.0 | 0.9 | 0.00 | 0.00 | 0.00 | 74 | 1014.0 |
| 20260507053042 | 57 | 6 | 1.7 | 2.6 | 0.00 | 0.00 | 0.00 | 75 | 1014.0 |
| 20260507052542 | 57 | 38 | 1.7 | 1.7 | 0.00 | 0.00 | 0.00 | 75 | 1014.0 |
| 20260507052043 | 57 | 2 | 0.9 | 1.7 | 0.00 | 0.00 | 0.00 | 75 | 1014.0 |
| 20260507051542 | 57 | 9 | 0.9 | 2.6 | 0.00 | 0.00 | 0.00 | 76 | 1014.0 |
| 20260507051042 | 57 | 10 | 0.9 | 2.6 | 0.00 | 0.00 | 0.00 | 76 | 1014.0 |
| 20260507050542 | 57 | 323 | 0.0 | 1.7 | 0.00 | 0.00 | 0.00 | 76 | 1014.0 |
| 20260507050042 | 57 | 44 | 1.7 | 1.7 | 0.00 | 0.00 | 0.00 | 76 | 1014.0 |
| 20260507045542 | 57 | 3 | 1.7 | 1.7 | 0.00 | 0.00 | 0.00 | 76 | 1014.0 |
| 20260507045042 | 57 | 22 | 0.9 | 2.6 | 0.00 | 0.00 | 0.00 | 76 | 1014.0 |
| 20260507044543 | 57 | 337 | 2.6 | 2.6 | 0.00 | 0.00 | 0.00 | 76 | 1014.0 |
| 20260507044042 | 57 | 344 | 0.0 | 2.6 | 0.00 | 0.00 | 0.00 | 76 | 1014.0 |
| 20260507043543 | 57 | 27 | 2.6 | 2.6 | 0.00 | 0.00 | 0.00 | 76 | 1014.0 |
| 20260507043042 | 57 | 337 | 0.0 | 2.6 | 0.00 | 0.00 | 0.00 | 76 | 1014.0 |
| 20260507042543 | 57 | 330 | 1.7 | 2.6 | 0.00 | 0.00 | 0.00 | 76 | 1014.0 |
| 20260507042043 | 57 | 350 | 3.5 | 3.5 | 0.00 | 0.00 | 0.00 | 76 | 1014.0 |
| 20260507041543 | 57 | 359 | 0.0 | 2.6 | 0.00 | 0.00 | 0.00 | 76 | 1014.0 |
| 20260507041042 | 57 | 326 | 2.6 | 3.5 | 0.00 | 0.00 | 0.00 | 77 | 1014.0 |
| 20260507040542 | 57 | 330 | 3.5 | 4.3 | 0.00 | 0.00 | 0.00 | 77 | 1014.0 |
| 20260507040042 | 57 | 320 | 1.7 | 3.5 | 0.00 | 0.00 | 0.00 | 77 | 1014.0 |
| 20260507035542 | 57 | 4 | 1.7 | 4.3 | 0.00 | 0.00 | 0.00 | 77 | 1014.0 |
| 20260507035043 | 57 | 352 | 2.6 | 3.5 | 0.00 | 0.00 | 0.00 | 77 | 1014.0 |
| 20260507034543 | 57 | 15 | 1.7 | 2.6 | 0.00 | 0.00 | 0.00 | 78 | 1014.0 |
| 20260507034042 | 57 | 4 | 1.7 | 3.5 | 0.00 | 0.00 | 0.00 | 78 | 1014.0 |
| 20260507033542 | 57 | 317 | 0.9 | 2.6 | 0.00 | 0.00 | 0.00 | 78 | 1014.0 |
| 20260507033043 | 57 | 299 | 1.7 | 2.6 | 0.00 | 0.00 | 0.00 | 78 | 1014.0 |
| 20260507032542 | 57 | 352 | 1.7 | 2.6 | 0.00 | 0.00 | 0.00 | 78 | 1014.0 |
| 20260507032042 | 57 | 332 | 2.6 | 4.3 | 0.00 | 0.00 | 0.00 | 78 | 1014.0 |
| 20260507031543 | 57 | 345 | 1.7 | 2.6 | 0.00 | 0.00 | 0.00 | 78 | 1014.0 |
| 20260507031043 | 58 | 336 | 3.5 | 4.3 | 0.00 | 0.00 | 0.00 | 78 | 1014.0 |
| 20260507030543 | 58 | 355 | 1.7 | 1.7 | 0.00 | 0.00 | 0.00 | 78 | 1014.0 |
| 20260507030042 | 58 | 337 | 1.7 | 2.6 | 0.00 | 0.00 | 0.00 | 78 | 1014.0 |
| 20260507025543 | 58 | 312 | 1.7 | 3.5 | 0.00 | 0.00 | 0.00 | 78 | 1014.0 |
| 20260507025047 | 58 | 332 | 2.6 | 2.6 | 0.00 | 0.00 | 0.00 | 79 | 1014.0 |
| 20260507024543 | 58 | 37 | 0.9 | 2.6 | 0.00 | 0.00 | 0.00 | 78 | 1014.0 |
| 20260507024043 | 58 | 0 | 0.9 | 2.6 | 0.00 | 0.00 | 0.00 | 78 | 1014.0 |
| 20260507023543 | 58 | 339 | 1.7 | 2.6 | 0.00 | 0.00 | 0.00 | 78 | 1014.0 |
| 20260507023043 | 58 | 318 | 2.6 | 3.5 | 0.00 | 0.00 | 0.00 | 78 | 1014.0 |
| 20260507022542 | 58 | 327 | 2.6 | 3.5 | 0.00 | 0.00 | 0.00 | 78 | 1014.0 |
| 20260507022042 | 58 | 315 | 0.0 | 3.5 | 0.00 | 0.00 | 0.00 | 78 | 1014.0 |
| 20260507021542 | 58 | 33 | 0.0 | 1.7 | 0.00 | 0.00 | 0.00 | 78 | 1014.0 |
| 20260507021042 | 58 | 13 | 1.7 | 3.5 | 0.00 | 0.00 | 0.00 | 78 | 1014.0 |
| 20260507020543 | 58 | 8 | 1.7 | 1.7 | 0.00 | 0.00 | 0.00 | 77 | 1014.0 |
| 20260507020043 | 58 | 336 | 1.7 | 2.6 | 0.00 | 0.00 | 0.00 | 77 | 1014.0 |
| 20260507015543 | 58 | 1 | 0.9 | 2.6 | 0.00 | 0.00 | 0.00 | 77 | 1014.0 |
| 20260507015043 | 58 | 356 | 1.7 | 3.5 | 0.00 | 0.00 | 0.00 | 77 | 1014.0 |
| 20260507014544 | 58 | 317 | 2.6 | 3.5 | 0.00 | 0.00 | 0.00 | 77 | 1014.0 |
| 20260507014042 | 58 | 339 | 0.9 | 2.6 | 0.00 | 0.00 | 0.00 | 76 | 1014.0 |
| 20260507013542 | 58 | 339 | 2.6 | 4.3 | 0.00 | 0.00 | 0.00 | 76 | 1014.0 |
| 20260507013043 | 58 | 347 | 1.7 | 3.5 | 0.00 | 0.00 | 0.00 | 76 | 1014.0 |
| 20260507012543 | 58 | 337 | 3.5 | 3.5 | 0.00 | 0.00 | 0.00 | 76 | 1014.0 |
| 20260507012042 | 58 | 352 | 3.5 | 3.5 | 0.00 | 0.00 | 0.00 | 76 | 1014.0 |
| 20260507011542 | 58 | 344 | 1.7 | 3.5 | 0.00 | 0.00 | 0.00 | 76 | 1014.0 |
| 20260507011042 | 59 | 327 | 5.2 | 5.2 | 0.00 | 0.00 | 0.00 | 76 | 1014.0 |
| 20260507010542 | 59 | 313 | 2.6 | 4.3 | 0.00 | 0.00 | 0.00 | 76 | 1014.0 |